AirNav   Air Wisconsin pilot careers
 
 1029 users online  

KEMT San Gabriel Valley Airport
El Monte, California, USA

GOING TO EL MONTE?


FAA INFORMATION EFFECTIVE 11 OCTOBER 2018

Location

FAA Identifier: EMT
Lat/Long: 34-05-09.6320N / 118-02-05.4430W
34-05.160533N / 118-02.090717W
34.0860089 / -118.0348453
(estimated)
Elevation: 295.6 ft. / 90.1 m (surveyed)
Variation: 14E (1985)
From city: 1 mile N of EL MONTE, CA
Time zone: UTC -7 (UTC -8 during Standard Time)
Zip code: 91731

Airport Operations

Airport use: Open to the public
Activation date: 04/1944
Control tower: yes
ARTCC: LOS ANGELES CENTER
FSS: RIVERSIDE FLIGHT SERVICE STATION
NOTAMs facility: EMT (NOTAM-D service available)
Attendance: CONTINUOUS
Wind indicator: lighted
Segmented circle: yes
Lights: WHEN ATCT CLSD ACTVT MIRL RY 01/19, REIL RY 19, PAPI RYS 01 AND 19 - CTAF.
Beacon: white-green (lighted land airport)
Operates sunset to sunrise.
Taxiway lights: CNTR TWY LGTS ONLY.

Airport Communications

CTAF: 121.2
UNICOM: 122.95
ATIS: 118.75
WX AWOS-3PT: 118.75 ((626) 444-1107)
EL MONTE GROUND: 125.9 [0800-2000]
EL MONTE TOWER: 121.2 [0800-2000]
SOCAL APPROACH: 125.5
SOCAL DEPARTURE: 125.5
WX AWOS-3PT at POC (13 nm E): 124.4 (909-596-1523)
WX ASOS at FUL (13 nm S): PHONE 714-870-1372
WX AWOS-3PT at CPM (16 nm SW): 127.150 (310-631-4958)
WX ASOS at LGB (17 nm S): PHONE 562-424-0572
WX AWOS-3P at CCB (17 nm E): 119.525 (909-985-4731)
WX ASOS at BUR (17 nm NW): PHONE 818-841-1384
WX ASOS at HHR (18 nm SW): PHONE 310-973-8930
  • DURING HOURS EL MONTE TWR IS OPNL ONTARIO PROVIDES DEP CTL SERVICE ON 125.5 OTHER HOURS DEP CTL ON 121.2.
  • FOR CLNC DEL WHEN ATCT CLSD CALL SOCAL APCH (800) 448-3724.

Nearby radio navigation aids

VOR radial/distance  VOR name  Freq  Var
POMr257/12.3POMONA VORTAC110.4015E
SLIr348/18.2SEAL BEACH VORTAC115.7015E
SMOr063/21.5SANTA MONICA VOR/DME110.8015E
LAXr050/21.8LOS ANGELES VORTAC113.6015E
VNYr095/24.1VAN NUYS VOR/DME113.1015E
PDZr277/27.1PARADISE VORTAC112.2015E
ELBr314/28.9EL TORO VOR/DME117.2014E
RALr271/(30.1)RIVERSIDE VOR112.4014E
PMDr162/32.8PALMDALE VORTAC114.5015E

 
NDB name  Hdg/Dist  Freq  Var  ID
EL MONTEat field35915EEMT . -- -

Airport Services

Fuel available: 100LL JET-A
Parking: tiedowns
Airframe service: MAJOR
Powerplant service: MAJOR
Bulk oxygen: NONE

Runway Information

Runway 1/19

Dimensions: 3995 x 75 ft. / 1218 x 23 m
Surface: asphalt/aggregate friction seal coat, in good condition
Weight bearing capacity: 
Single wheel: 12.5
Runway edge lights: medium intensity
RUNWAY 1  RUNWAY 19
Latitude: 34-04.862517N34-05.457367N
Longitude: 118-02.260400W118-01.920483W
Elevation: 281.8 ft.295.6 ft.
Gradient: 0.3% UP0.4%
Traffic pattern: leftright
Runway heading: 011 magnetic, 025 true191 magnetic, 205 true
Displaced threshold: 290 ft.641 ft.
Declared distances: TORA:3504 TODA:3995 ASDA:3755 LDA:3465TORA:3995 TODA:3995 ASDA:3995 LDA:3354
Markings: basic, in good conditionbasic, in good condition
Visual slope indicator: 2-light PAPI on left (4.57 degrees glide path)2-light PAPI on right (4.50 degrees glide path)
Runway end identifier lights: noyes
Touchdown point: yes, no lightsyes, no lights
Obstructions: 18 ft. pole, 350 ft. from runway, 85 ft. right of centerline, 8:1 slope to clear
RWY 01 +6 FT FENCE 120 FT R OF CNTRLN; +6 FT FENCE 120 FT LEFT & PARALLEL TO CNTRLN 0-200 FT FM END OF RY.
30 ft. pole, 800 ft. from runway, 205 ft. left of centerline, 20:1 slope to clear
+2 FT FENCE 75 FT RIGHT OF CNTRLN AT THR TO 0 FT RIGHT OF CNTRLN AT 200 FT.

Airport Ownership and Management from official FAA records

Ownership: Publicly-owned
Owner: CO OF LOS ANGELES
P O BOX 1460
ALHAMBRA, CA 91803-1331
Phone (626) 300-4602
LA COUNTY CTC: RICHARD SMITH (626) 300-4600 X4615. AIRPORT MGT CONTRACTED TO - AMERICAN AIRPORTS CORP.
Manager: ALVARO ESCOBEDO
4233 NORTH SANTA ANITA AVE
EL MONTE, CA 91731
Phone 626-448-6129

Airport Operational Statistics

Aircraft based on the field: 220
Single engine airplanes: 198
Multi engine airplanes: 11
Helicopters: 9
Gliders airplanes: 2
    
Aircraft operations: avg 245/day *
58% local general aviation
42% transient general aviation
<1% air taxi
<1% military
* for 12-month period ending 31 December 2014

Additional Remarks

REMAIN OVER PAVED CHANNEL ON CLIMB OUT TO SOUTH AND TO NORTH.
HEAVY BIRD ACTIVITY ON & INVOF ARPT.
LGTD WATER TWR 1 MI W-SW OF ARPT.
NOISE ABATEMENT PROCEDURES IN EFFECT, CTC ARPT MANAGER FOR DETAILS.

Instrument Procedures

NOTE: All procedures below are presented as PDF files. If you need a reader for these files, you should download the free Adobe Reader.

NOT FOR NAVIGATION. Please procure official charts for flight.
FAA instrument procedures published for use from 11 October 2018 at 0901Z to 8 November 2018 at 0900Z.

 
STARs - Standard Terminal Arrivals
SETER FIVE   download (260KB)
ZIGGY SEVEN   2 pages: [1] [2] (411KB)
 
IAPs - Instrument Approach Procedures
VOR OR GPS-B **CHANGED**   download (311KB)
VOR-A **NEW**   download (295KB)
NOTE: Special Alternate Minimums apply **CHANGED**   download (37KB)
NOTE: Special Take-Off Minimums/Departure Procedures apply **CHANGED**   download (236KB)

Other nearby airports with instrument procedures:

KPOC - Brackett Field Airport (13 nm E)
KFUL - Fullerton Municipal Airport (13 nm S)
KLGB - Long Beach Airport (Daugherty Field) (17 nm S)
KCCB - Cable Airport (17 nm E)
KBUR - Bob Hope Airport (17 nm NW)
KSLI - Los Alamitos Army Airfield (18 nm S)
KHHR - Jack Northrop Field/Hawthorne Municipal Airport (18 nm SW)
 
Loc | Ops | Rwys | IFR | FBO | Links
Com | Nav | Svcs | Stats | Notes

San Bernardino International Airport Authority
 
Area around KEMT (San Gabriel Valley Airport)
 
Road maps at: MapQuest Bing Google
 
Aerial photo
WARNING: Photo may not be current or correct
Aerial photo of KEMT (San Gabriel Valley Airport)
Photo by Fred Emmert AirViews.com
Photo taken 08-Jun-2015
looking south-southwest.

Do you have a better or more recent aerial photo of San Gabriel Valley Airport that you would like to share? If so, please send us your photo.

 
Sectional chart

 
Airport diagram
CAUTION: Diagram may not be current
Diagram of KEMT (San Gabriel Valley Airport)
Download PDF
of official airport diagram from the FAA

 
Airport distance calculator
Flying to San Gabriel Valley Airport? Find the distance to fly.

From to KEMT

Sunrise and sunset
Times for 15-Oct-2018
 Local
(UTC-7)
 Zulu
(UTC)
Morning civil twilight06:3313:33
Sunrise06:5813:58
Sunset18:1701:17
Evening civil twilight18:4301:43

Current date and time
Zulu (UTC)  16-Oct-2018 00:42:30
Local (UTC-7)  15-Oct-2018 17:42:30
 
METAR
KEMT 152353Z 06008KT 10SM CLR 27/M17 A2999
KCQT 
10nm W 
152347Z AUTO 36007KT 10SM CLR 28/M17 A2999 RMK AO2 SLPNO T02781167 10278 20250 56012
KFUL 
13nm S 
152353Z 08009KT 10SM CLR 27/M16 A2999 RMK AO2 SLP154 T02721161 10283 20250 56006
KLGB 
17nm S 
152353Z 10008KT 10SM CLR 27/M15 A2999 RMK AO2 SLP155 T02721150 10289 20256 56009
KCCB 
17nm E 
119.525 909-985-4731
160015Z AUTO VRB04G12KT 10SM CLR 24/M23 A3000 RMK AO2
KBUR 
18nm NW 
152353Z VRB06KT 10SM CLR 26/M24 A3002 RMK AO2 SLP153 T02611239 10261 20228 56014 $
KHHR 
18nm SW 
152353Z VRB04KT 10SM CLR 28/M17 A2999 RMK AO2 SLP155 T02831167 10289 20244 56005
KSLI 
19nm S 
152358Z AUTO 07013KT 10SM CLR 27/M16 A2999 RMK AO2 SLP159 T02661162 10278 20238
KLAX 
20nm SW 
152353Z 02012G19KT 10SM CLR 28/M21 A2999 RMK AO2 SLP154 T02831211 10289 20250 56009
TAF
KLGB 
17nm S 
152110Z 1521/1618 03007KT P6SM SKC FM152200 05010KT P6SM SKC FM160000 VRB03KT P6SM SKC FM161400 03007KT P6SM SKC
KBUR 
18nm NW 
152208Z 1522/1618 02012G18KT P6SM SKC FM160000 01012KT P6SM SKC FM160300 36006KT P6SM SKC FM160700 VRB03KT P6SM SKC FM161600 05006KT P6SM SKC
KSLI 
19nm S 
152100Z 1521/1703 08012G18KT 9999 SKC QNH3000INS TEMPO 1521/1524 06020G30KT 520009 BECMG 1600/1601 13009KT 9999 SKC QNH2999INS BECMG 1605/1606 VRB06KT 9999 SKC QNH3005INS BECMG 1611/1612 05009KT 9999 SKC QNH3002INS BECMG 1617/1618 06012KT 9999 SKC QNH2998INS BECMG 1622/1623 25012KT 9999 SKC QNH2998INS BECMG 1701/1702 26009KT 9999 SKC QNH3000INS TX27/1521Z TN12/1612Z
KLAX 
20nm SW 
160021Z 1600/1706 03012G20KT P6SM SKC FM160200 03007KT P6SM SKC FM160400 28008KT P6SM SKC FM160500 VRB03KT P6SM SKC FM162000 26012KT P6SM SKC FM170500 VRB03KT P6SM SKC
KSMO 
21nm W 
152005Z 1520/1618 02017G27KT P6SM SKC FM152200 04012KT P6SM SKC FM160200 02008KT P6SM SKC FM160900 VRB03KT P6SM SKC FM161400 04007KT P6SM SKC
NOTAMs
Click for the latest NOTAMs
NOTAMs are issued by the DoD/FAA and will open in a separate window not controlled by AirNav.

 

 
 

FBO, Fuel Providers, and Aircraft Ground Support

  
 Business Name 
 
 Contact 
 
 Services / Description 
 
Fuel Prices
 
Comments
  
Billion Air Aviation, Inc. UNICOM 122.95
626-208-3708
toll-free 1-888-818-8177
[web site]
[email]
Aviation fuel, Aircraft ground handling, Aircraft parking (ramp or tiedown), Hangars, Hangar leasing / sales, Passenger terminal and lounge, ...
More info and photos of Billion Air Aviation, Inc.
Phillips 66
100LL Jet A
FS $5.29 $4.09 
 Updated 11-Oct-2018
 
   7 read write
 American Airports Corp.
626-448-6129
[web site]
[email]
Airport management, Aviation fuel, Aircraft parking (ramp or tiedown), Hangars, Passenger terminal and lounge, Pilots lounge / snooze room, Computerized weather, ...

More info about American Airports Corp.
Avfuel
100LL Jet A
FS $5.49 $4.09 
SS $5.09 --- 
 Updated 12-Oct-2018
 
   1 read write
FS=Full service
SS=Self service
Update Fuel Prices
 

Would you like to see your business listed on this page?

 If your business provides an interesting product or service to pilots, flight crews, aircraft, or users of the San Gabriel Valley Airport, you should consider listing it here.  To start the listing process, click on the button below
 
Add a business
 

Other Pages about San Gabriel Valley Airport

aacit.caltech.edu/...
 
Update a link
 
Copyright © AirNav, LLC. All rights reserved. Privacy Policy  Contact